GW7273 Weather Reports


time (UTC)temp
F
wind
direction
speed
knots
gust
knots
rain 1hr
in
rain 24hr
in
rain mn
in
humidity
%
barometer
mb
20260504233045 56 10 0.9 0.9 0.00 0.00 0.00 79 1012.1
20260504231542 57 24 0.0 1.7 0.00 0.00 0.00 76 1012.0
20260504230041 58 78 0.0 0.9 0.00 0.00 0.00 75 1012.1
20260504224541 58 81 0.0 0.9 0.00 0.00 0.00 74 1012.2
20260504223042 59 0 0.0 0.9 0.00 0.00 0.00 74 1012.3
20260504221543 60 349 0.9 1.7 0.00 0.00 0.00 71 1012.3
20260504220044 60 6 0.0 1.7 0.00 0.00 0.00 70 1012.3
20260504214537 61 8 0.9 2.6 0.00 0.00 0.00 69 1012.3
20260504213100 62 17 0.9 1.7 0.00 0.00 0.00 68 1012.3
20260504211541 62 73 1.7 3.5 0.00 0.00 0.00 67 1012.3
20260504210040 62 352 0.9 2.6 0.00 0.00 0.00 68 1012.1
20260504204545 62 357 1.7 2.6 0.00 0.00 0.00 69 1012.1
20260504203052 61 0 0.0 1.7 0.00 0.00 0.00 77 1012.0
20260504201542 62 311 0.9 0.9 0.00 0.00 0.00 72 1012.1
20260504200041 63 311 0.0 0.0 0.00 0.00 0.00 68 1012.0
20260504194555 64 0 0.0 0.0 0.00 0.00 0.00 65 1012.0
20260504193050 64 311 0.0 0.9 0.00 0.00 0.00 67 1012.1
20260504191544 65 311 0.0 0.0 0.00 0.00 0.00 63 1012.0
20260504190050 66 0 0.0 0.0 0.00 0.00 0.00 57 1012.0
20260504184543 67 311 0.0 0.9 0.00 0.00 0.00 57 1012.0
20260504183042 67 310 0.0 1.7 0.00 0.00 0.00 55 1011.8
20260504181544 68 345 0.9 1.7 0.00 0.00 0.00 54 1011.8
20260504180040 69 307 1.7 3.5 0.00 0.00 0.00 52 1011.7
20260504174545 69 316 1.7 4.3 0.00 0.00 0.00 51 1011.7
20260504173049 70 309 0.9 3.5 0.00 0.00 0.00 50 1011.6
20260504171543 70 316 1.7 7.8 0.00 0.00 0.00 49 1011.6
20260504081541 70 234 3.5 4.3 0.00 0.00 0.00 47 1013.1
20260504044551 58 251 3.5 7.8 0.00 0.00 0.00 55 1012.1
20260504043046 57 196 3.5 10.4 0.00 0.00 0.00 55 1012.1
20260504041541 58 213 4.3 8.7 0.00 0.00 0.00 55 1011.9
20260504040043 57 179 4.3 7.0 0.00 0.00 0.00 55 1011.7
20260504034551 57 201 3.5 6.1 0.00 0.00 0.00 55 1011.8
20260504033051 57 168 4.3 7.0 0.00 0.00 0.00 55 1011.6
20260504031538 57 198 2.6 6.1 0.00 0.00 0.00 54 1011.7
20260504030036 58 129 3.5 7.8 0.00 0.00 0.00 54 1011.8
20260504024545 58 203 4.3 7.8 0.00 0.00 0.00 53 1011.7
20260504023043 58 200 3.5 6.1 0.00 0.00 0.00 53 1011.8
20260504021542 58 196 3.5 6.1 0.00 0.00 0.00 53 1011.8
20260504020041 58 197 2.6 6.1 0.00 0.00 0.00 52 1011.9
20260504014536 59 143 4.3 7.0 0.00 0.00 0.00 52 1011.9
20260504013043 59 221 3.5 7.0 0.00 0.00 0.00 50 1011.8
20260504011545 59 206 2.6 5.2 0.00 0.00 0.00 50 1011.8
20260504010052 60 202 3.5 8.7 0.00 0.00 0.00 49 1011.8
20260504004542 61 216 3.5 7.0 0.00 0.00 0.00 48 1011.9
20260504003038 61 181 5.2 8.7 0.00 0.00 0.00 47 1011.9
20260504001541 61 163 4.3 8.7 0.00 0.00 0.00 47 1011.8
20260504000045 61 181 4.3 7.8 0.00 0.00 0.00 46 1011.9
20260503234544 62 203 3.5 7.8 0.00 0.00 0.00 45 1011.9